Time,TemperatureF,DewpointF,PressureIn,WindDirection,WindDirectionDegrees,WindSpeedMPH,WindSpeedGustMPH,Humidity,HourlyPrecipIn,Conditions,Clouds,dailyrainin,SoftwareType,DateUTC
2014-03-08 00:11:00,39.0,-99.9,-100.00,West,281,8.0,10.0,-999,-99.99,,,-99.99,,2014-03-08 08:11:00,
2014-03-08 01:12:00,36.0,-99.9,-100.00,NE,44,6.0,8.0,-999,-99.99,,,-99.99,,2014-03-08 09:12:00,
2014-03-08 02:13:00,35.0,-99.9,-100.00,WNW,303,6.0,9.0,-999,-99.99,,,-99.99,,2014-03-08 10:13:00,
2014-03-08 03:12:00,37.0,-99.9,-100.00,NNW,345,8.0,9.0,-999,-99.99,,,-99.99,,2014-03-08 11:12:00,
2014-03-08 04:12:00,36.0,-99.9,-100.00,North,1,5.0,7.0,-999,-99.99,,,-99.99,,2014-03-08 12:12:00,
2014-03-08 05:11:00,34.0,-99.9,-100.00,WNW,283,5.0,6.0,-999,-99.99,,,-99.99,,2014-03-08 13:11:00,
2014-03-08 06:12:00,34.0,-99.9,-100.00,WNW,290,6.0,8.0,-999,-99.99,,,-99.99,,2014-03-08 14:12:00,
2014-03-08 08:13:00,36.0,-99.9,-100.00,NW,308,3.0,6.0,-999,-99.99,,,-99.99,,2014-03-08 16:13:00,
2014-03-08 09:13:00,42.0,-99.9,-100.00,NNW,339,6.0,9.0,-999,-99.99,,,-99.99,,2014-03-08 17:13:00,
2014-03-08 10:12:00,41.0,-99.9,-100.00,NNE,23,1.0,2.0,-999,-99.99,,,-99.99,,2014-03-08 18:12:00,
2014-03-08 11:12:00,43.0,-99.9,-100.00,North,360,3.0,6.0,-999,-99.99,,,-99.99,,2014-03-08 19:12:00,
2014-03-08 12:12:00,45.0,-99.9,-100.00,NNE,15,5.0,7.0,-999,-99.99,,,-99.99,,2014-03-08 20:12:00,
2014-03-08 13:11:00,45.0,-99.9,-100.00,North,357,7.0,10.0,-999,-99.99,,,-99.99,,2014-03-08 21:11:00,
2014-03-08 14:12:00,46.0,-99.9,-100.00,NNE,16,3.0,7.0,-999,-99.99,,,-99.99,,2014-03-08 22:12:00,
2014-03-08 15:12:00,48.0,-99.9,-100.00,North,11,3.0,7.0,-999,-99.99,,,-99.99,,2014-03-08 23:12:00,
2014-03-08 16:12:00,48.0,-99.9,-100.00,NE,48,3.0,6.0,-999,-99.99,,,-99.99,,2014-03-09 00:12:00,
2014-03-08 17:12:00,48.0,-99.9,-100.00,SSW,192,1.0,3.0,-999,-99.99,,,-99.99,,2014-03-09 01:12:00,
2014-03-08 18:12:00,48.0,-99.9,-100.00,North,10,3.0,5.0,-999,-99.99,,,-99.99,,2014-03-09 02:12:00,
2014-03-08 19:12:00,46.0,-99.9,-100.00,North,10,3.0,3.0,-999,-99.99,,,-99.99,,2014-03-09 03:12:00,
2014-03-08 20:03:00,-999.0,-99.9,-100.00,South,173,1.0,2.0,-999,-99.99,,,-99.99,,2014-03-09 04:03:00,
2014-03-08 20:13:00,46.0,-99.9,-100.00,South,173,1.0,2.0,-999,-99.99,,,-99.99,,2014-03-09 04:13:00,
2014-03-08 21:12:00,45.0,-99.9,-100.00,North,355,3.0,7.0,-999,-99.99,,,-99.99,,2014-03-09 05:12:00,
2014-03-08 22:12:00,53.0,-99.9,-100.00,NE,43,5.0,12.0,-999,-99.99,,,-99.99,,2014-03-09 06:12:00,
2014-03-08 23:12:00,59.0,-99.9,-100.00,SE,140,8.0,14.0,-999,-99.99,,,-99.99,,2014-03-09 07:12:00,